This is the latest recevied weather packets stored in our database for station/object SP3VSS-13. If no packets are shown the sender has not sent any weather packets the latest 10 day(s).
| Time | Temp. | Humidity | Pressure | Rain* | Wind** | Luminosity | Snow |
|---|---|---|---|---|---|---|---|
| 1788544034 | 24.44° C | 73% | 992.9 hPa | - | - | - | - |
| 1788543134 | 24.44° C | 73% | 992.8 hPa | - | - | - | - |
| 1788542232 | 24.44° C | 73% | 992.6 hPa | - | - | - | - |
| 1788541344 | 24.44° C | 73% | 992.5 hPa | - | - | - | - |
| 1788540430 | 24.44° C | 70% | 990.8 hPa | - | - | - | - |
| 1788539530 | 24.44° C | 66% | 991.1 hPa | - | - | - | - |
| 1788538628 | 24.44° C | 66% | 991 hPa | - | - | - | - |
| 1788537727 | 24.44° C | 66% | 991.1 hPa | - | - | - | - |
| 1788536826 | 24.44° C | 65% | 991.4 hPa | - | - | - | - |
| 1788535925 | 24.44° C | 65% | 991.7 hPa | - | - | - | - |
| 1788535024 | 24.44° C | 65% | 991.8 hPa | - | - | - | - |
| 1788534123 | 24.44° C | 65% | 992 hPa | - | - | - | - |
| 1788533222 | 24.44° C | 65% | 992.2 hPa | - | - | - | - |
| 1788531419 | 24.44° C | 66% | 992.8 hPa | - | - | - | - |
| 1788530519 | 23.89° C | 68% | 993 hPa | - | - | - | - |
| 1788529617 | 23.33° C | 71% | 993.3 hPa | - | - | - | - |
| 1788528716 | 23.33° C | 71% | 993.5 hPa | - | - | - | - |
| 1788527815 | 23.33° C | 71% | 993.9 hPa | - | - | - | - |
| 1788526914 | 23.33° C | 71% | 994.3 hPa | - | - | - | - |
| 1788526013 | 23.33° C | 71% | 994.7 hPa | - | - | - | - |
| 1788525112 | 22.78° C | 72% | 994.9 hPa | - | - | - | - |
| 1788524210 | 22.78° C | 71% | 995.3 hPa | - | - | - | - |
| 1788523310 | 20.56° C | 76% | 995.8 hPa | - | - | - | - |
| 1788522409 | 20.56° C | 76% | 996 hPa | - | - | - | - |
| 1788521507 | 20.56° C | 76% | 996.4 hPa | - | - | - | - |
* Rain since midnight (hover to see other rain measurements)
** Current wind speed in m/s (hover to see current wind gust speed)